Regional Weather Roundup
Issued by NWS

Home | Current Version | Previous Version | Text Only | Print | Product List | Glossary On
Versions: 1 2 3 4 5 6 7 8 9 10 11 12 13 14 15 16 17 18 19 20 21 22 23 24 25 26 27
000
ASUS46 KSEW 291510
RWRWA

WASHINGTON REGIONAL WEATHER ROUNDUP
NATIONAL WEATHER SERVICE SEATTLE WA
800 AM PDT SUN MAY 29 2016

NOTE:"FAIR" INDICATES FEW OR NO CLOUDS BELOW 12,000 FEET WITH NO
SIGNIFICANT WEATHER AND/OR OBSTRUCTIONS TO VISIBILITY.

WAZ505-507>509-291600-
SEATTLE, TACOMA, EVERETT, AND VICINITY

CITY           SKY/WX    TMP DP  RH WIND       PRES   REMARKS
EVERETT        LGT RAIN  49  46  90 N8        30.11R FOG
BOEING FIELD   CLOUDY    56  51  84 S8        30.10R
RENTON         CLOUDY    56  51  84 S5        30.10R
SEATAC AIRPORT CLOUDY    54  51  90 SW7       30.11R
JBLM-MCCHORD   CLOUDY    55  54  97 SW8       30.10R
PUYALLUP       PTSUNNY   55  52  88 CALM      30.10S
BREMERTON      CLOUDY    52  50  93 S6        30.11R
JBLM-FT LEWIS  PTSUNNY   54  54  99 S6        30.10R
TACOMA NARROWS PTSUNNY   53  50  89 S7        30.11R
$$

WAZ001-503-506-510-514-515-291600-
NORTH INTERIOR

CITY           SKY/WX    TMP DP  RH WIND       PRES   REMARKS
BELLINGHAM     LGT RAIN  52  49  89 S10       30.07R
FRIDAY HARBOR  CLOUDY    53  47  79 CALM      30.09R
EASTSOUND      MOSUNNY   54  46  76 SW5       30.07R
PORT ANGELES   PTSUNNY   54  45  71 W7        30.09R
EDIZ HOOK      PTSUNNY   52  45  75 W13G18    30.10R
PORT TOWNSEND  PTSUNNY   52  50  93 CALM      30.11R FOG
NAS WHIDBEY    LGT RAIN  53  50  89 SW9       30.13R
ARLINGTON      CLOUDY    50  43  76 N6        30.13R
BURLINGTON     MOSUNNY   50  50 100 S3        30.10R FOG
$$

WAZ020-022-039-040-504-511-512-291600-
SOUTHWEST INTERIOR

CITY           SKY/WX    TMP DP  RH WIND       PRES   REMARKS
SHELTON        CLOUDY    54  51  90 SW13      30.07R
OLYMPIA        PTSUNNY   54  49  83 SW8       30.11R
CHEHALIS       CLOUDY    52  52 100 CALM      30.12R
KELSO          CLOUDY    55  46  71 CALM      30.16S
VANCOUVER      CLOUDY    57  49  74 NW3       30.12R
SCAPPOOSE, OR  CLOUDY    57  50  77 CALM      30.12R
PORTLAND, OR   CLOUDY    58  49  72 VRB3      30.13R
$$

WAZ021-516-517-291600-
WASHINGTON COAST

CITY           SKY/WX    TMP DP  RH WIND       PRES   REMARKS
FORKS          PTSUNNY   49  47  93 MISG      30.12R
HOQUIAM        CLOUDY    53  50  89 W6        30.12R
ASTORIA, OR    LGT RAIN  54  52  93 W3        30.13R FOG
$$

WAZ019-023-024-040-518-519-291600-
CASCADE MOUNTAINS AND COLUMBIA GORGE

CITY           SKY/WX    TMP DP  RH WIND       PRES   REMARKS
STAMPEDE PASS  CLOUDY    42  39  89 W9        30.06R
TROUTDALE, OR  CLOUDY    59  50  72 CALM      30.12R
THE DALLES, OR SUNNY     64  47  53 NW13      30.05R
$$

WAZ026-027-041>044-520-521-291600-
EAST SLOPES

CITY           SKY/WX    TMP DP  RH WIND       PRES   REMARKS
OMAK           CLOUDY    57  42  57 CALM      29.96S
WENATCHEE      MOSUNNY   58  42  55 NW10      29.99S
ELLENSBURG     MOSUNNY   58  41  53 NW21G29   30.01S
YAKIMA         SUNNY     60  43  53 CALM      30.02S
$$

WAZ028-034-035-291600-
COLUMBIA BASIN

CITY           SKY/WX    TMP DP  RH WIND       PRES   REMARKS
EPHRATA        MOSUNNY   60  41  49 VRB3      29.98R
MOSES LAKE     SUNNY     58  45  62 CALM      30.00R
PASCO          MOSUNNY   62  45  53 SW3       30.02R
HERMISTON, OR  PTSUNNY   64  46  52 W12       30.03R
$$

WAZ036>038-291600-
NORTHEAST WASHINGTON

CITY           SKY/WX    TMP DP  RH WIND       PRES   REMARKS
SPOKANE GEIGER PTSUNNY   56  41  57 S8        29.99S
SPOKANE FELTS  MOSUNNY   57  45  64 VRB3      30.00S
FAIRCHILD AFB  MOSUNNY   56  42  60 S12       29.98S
COEURDALENE,ID MOSUNNY   54  43  66 SE6       29.98S
DEER PARK      MOSUNNY   56  42  59 S7        30.00R
$$

WAZ029>033-291600-
SOUTHEAST WASHINGTON

CITY           SKY/WX    TMP DP  RH WIND       PRES   REMARKS
PULLMAN        PTSUNNY   58  45  62 SE3       30.04S
LEWISTON, ID   MOSUNNY   56  45  66 N3        30.03R
WALLA WALLA    SUNNY     63  45  51 SW12      30.02S
PENDLETON, OR  PTSUNNY   61  43  51 S6        30.04R
$$




USA.gov is the U.S. government's official web portal to all federal, state and local government web resources and services.